sat.trackr.live / text

‹ back to catalog

STARLINK-35715

NORAD 66841 · 2025-280W

PAYLOAD ACTIVE UNKNOWN

§ Identity

Operator
Country
US
Launch date
2025-12-02
Launch site
AFWTR
Launch vehicle
Mass (kg)
RCS (m²)

Purposes: comms

External: N2YO · Heavens-Above · Gunter

§ Orbital elements

Epoch: 2026-05-25T03:18:49.203072Z

Period
96.11 min
Inclination
70.0011°
Eccentricity
0.0003833
Mean motion
14.98328417 rev/d
Perigee alt
569.4 km
Apogee alt
574.7 km
Semi-major
6,950.2 km
B*
-1.3320e-5
RAAN
141.8438°
Arg perigee
267.0201°
Mean anomaly
93.0519°
Rev number
2,752

§ Raw data

STARLINK-357151 66841U 25280W   26145.13806948 -.00000252  00000+0 -13320-4 0  99922 66841  70.0011 141.8438 0003833 267.0201  93.0519 14.98328417 27520

JSON: /api/v1/satellites/66841 · /tle

For live sub-satellite position, see the globe view (requires WebGL).

§ Visibility from observer

Set your observer location to see the next 7 days of passes ≥ 10°. The values pass through the URL so the page stays shareable.

No JS? Fill the form by hand. The geolocation button needs JavaScript.